User: anonymous   Login
Location: Unspecified
(30.8073°N, 0.0000°E)
Time: 22:29:12
(UTC+00:00)
Language:

CAS-4A - Orbit

View from above orbital plane
View from above orbital plane
View from above satellite
View from above satellite

Ground track
Ground track

The orbit data is extracted from the following two-line orbital elements,

1 42761U 17034D   19261.01214994  .00000039  00000-0  15909-4 0  9994
2 42761  43.0187  88.6875 0010439 108.4005  27.3666 15.09709329124633
Epoch (UTC): 18 September 2019 00:17:29
Eccentricity: 0.0010439
inclination: 43.0187°
perigee height: 530 km
apogee height: 544 km
right ascension of ascending node: 88.6875°
argument of perigee: 108.4005°
revolutions per day: 15.09709329
mean anomaly at epoch: 27.3666°
orbit number at epoch: 12463

The dashed part of the orbit path shows where the satellite is in the earth's shadow,  

DLR